Blythe, CA

12:52 AM PDT on August 20, 2017 (GMT -0700)
Blythe

Weather History for KBLH - December, 2012

Change the Weather History Date:

Sunday, December 16, 2012

  Actual Average Record
Temperature  
Mean Temperature 51 °F -  
Max Temperature 59 °F 64 °F 84 °F (1980)
Min Temperature 43 °F 40 °F 27 °F (2005)
Degree Days  
Heating Degree Days 14    
Growing Degree Days 1 (Base 50)    
Moisture  
Dew Point 45 °F    
Average Humidity 79    
Maximum Humidity 100    
Minimum Humidity 51    
Precipitation  
Precipitation 0.00 in - - ()
Sea Level Pressure  
Sea Level Pressure 30.11 in    
Wind  
Wind Speed 3 mph (ENE)    
Max Wind Speed 7 mph    
Max Gust Speed -    
Visibility 9 miles    
Events      
Averages and records for this station are not official NWS values.
T = Trace of Precipitation, MM = Missing Value Source: NWS Daily Summary

Daily Weather History Graph

Daily Weather History Graph

Search for Another Location

Airport or City:

Trip Planner

Search our weather history database for the weather conditions in past years. The results will help you decide how hot, cold, wet, or windy it might be!

Date:

Astronomy

Dec. 16, 2012 Rise Set
Actual Time 6:36 AM PST 4:32 PM PST
Civil Twilight 6:09 AM PST 5:00 PM PST
Nautical Twilight 5:38 AM PST 5:31 PM PST
Astronomical Twilight 5:07 AM PST 6:01 PM PST
Moon 9:21 AM PST (12/16) 8:41 PM PST (12/16)
Length of Visible Light 10h 51m
Length of Day
9h 55m
Waxing Crescent, 17% of the Moon is Illuminated
Dec 16
Waxing Crescent
Dec 19
First Quarter
Dec 28
Full
Jan 4
Last Quarter
Jan 11
New

Hourly Weather History & Observations

Time (PST) Temp. Windchill Dew Point Humidity Pressure Visibility Wind Dir Wind Speed Gust Speed Precip Events Conditions
12:52 AM 48.0 °F - 45.0 °F 89% 30.05 in 10.0 mi ENE 4.6 mph - N/A   Overcast
1:52 AM 48.0 °F - 46.0 °F 93% 30.07 in 10.0 mi Calm Calm - N/A   Mostly Cloudy
3:52 AM 48.0 °F - 45.0 °F 89% 30.05 in 9.0 mi NE 5.8 mph - N/A   Mostly Cloudy
4:52 AM 45.0 °F - 44.1 °F 97% 30.07 in 9.0 mi Calm Calm - N/A   Clear
5:52 AM 44.1 °F - 43.0 °F 96% 30.09 in 6.0 mi Calm Calm - N/A   Clear
6:52 AM 43.0 °F 38.8 °F 43.0 °F 100% 30.11 in 4.0 mi NE 6.9 mph - N/A   Clear
7:52 AM 45.0 °F - 44.1 °F 97% 30.13 in 5.0 mi Calm Calm - N/A   Clear
8:52 AM 48.9 °F - 45.0 °F 86% 30.15 in 10.0 mi Calm Calm - N/A   Clear
9:52 AM 52.0 °F - 46.0 °F 80% 30.16 in 10.0 mi Calm Calm - N/A   Clear
10:52 AM 53.1 °F - 43.0 °F 69% 30.15 in 10.0 mi Calm Calm - N/A   Clear
11:52 AM 55.9 °F - 43.0 °F 62% 30.13 in 10.0 mi Calm Calm - N/A   Clear
12:52 PM 57.9 °F - 44.1 °F 60% 30.11 in 10.0 mi Calm Calm - N/A   Clear
1:52 PM 57.9 °F - 43.0 °F 58% 30.09 in 10.0 mi South 5.8 mph - N/A   Clear
2:52 PM 59.0 °F - 41.0 °F 51% 30.08 in 10.0 mi South 5.8 mph - N/A   Clear
3:52 PM 59.0 °F - 43.0 °F 55% 30.08 in 10.0 mi Calm Calm - N/A   Clear
4:52 PM 55.9 °F - 48.0 °F 75% 30.08 in 10.0 mi ENE 4.6 mph - N/A   Clear
5:52 PM 53.1 °F - 46.9 °F 80% 30.11 in 10.0 mi NE 4.6 mph - N/A   Clear
6:52 PM 53.1 °F - 46.9 °F 80% 30.13 in 10.0 mi NE 3.5 mph - N/A   Mostly Cloudy
7:52 PM 52.0 °F - 45.0 °F 77% 30.13 in 10.0 mi East 4.6 mph - N/A   Overcast
8:52 PM 51.1 °F - 46.0 °F 83% 30.14 in 10.0 mi ENE 4.6 mph - N/A   Overcast
10:52 PM 48.9 °F - 45.0 °F 86% 30.14 in 10.0 mi Calm Calm - N/A   Clear
11:52 PM 48.9 °F - 44.1 °F 83% 30.14 in 10.0 mi NNE 4.6 mph - N/A   Mostly Cloudy